Tracking 19242 objects as of 15-Aug-2018
HD Live streaming from Space Station
objects crossing your sky now

INTELSAT 508

Track INTELSAT 508 now!
INTELSAT 508 is classified as:


NORAD ID: 14786
Int'l Code: 1984-023A
Perigee: 36,577.5 km
Apogee: 36,722.8 km
Inclination: 15.9 °
Period: 1,480.1 minutes
Semi major axis: 43021 km
RCS: 7.6859 m2 (large)
Launch date: March 5, 1984
Source: International Telecommunications Satellite Organization (ITSO)
Launch site: FRENCH GUIANA (FRGUI)
aabbcc
Your satellite tracking list
Your tracking list is empty




NASA's NSSDC Master Catalog

Two Line Element Set (TLE):
1 14786U 84023A   18226.38933123 -.00000151  00000-0  00000+0 0  9991
2 14786  15.9063   0.5298 0016893 153.4469 256.2119  0.97292666 87384
Source of the keplerian elements: AFSPC